www.pogodaiklimat.ru
ПОГОДА в Акроне
Время
и дата
14:51 24.09
15:51 24.09
16:51 24.09
17:51 24.09
18:51 24.09
19:51 24.09
20:51 24.09
21:51 24.09
22:51 24.09
23:51 24.09
00:51 25.09
01:47 25.09
01:51 25.09
02:51 25.09
03:02 25.09
03:51 25.09
04:51 25.09
05:51 25.09
06:51 25.09
07:51 25.09
08:51 25.09
09:51 25.09
10:51 25.09
11:51 25.09
12:22 25.09
12:29 25.09
12:45 25.09
12:51 25.09
13:21 25.09
13:35 25.09
13:51 25.09
14:51 25.09
15:51 25.09
16:23 25.09
16:40 25.09
16:51 25.09
17:51 25.09
18:51 25.09
19:42 25.09
19:51 25.09
20:34 25.09
20:51 25.09
21:51 25.09
22:51 25.09
23:51 25.09
00:34 26.09
00:51 26.09
01:13 26.09
Ветер
(напр.,м/с)
Видим. Явления Облачность Т
(С)
Тd
(С)
f
(%)
Тe
(С)
Тes
(С)
Комфортность P
(гПа)
Po
(гПа)
Тmin
(С)
Tmax
(С)
R
(мм)
R24
(мм)
S
(см)
ЮЗ 5 16 км 10/8 1800 m
[Ac]
+18.3 +7.8 50 +18 +18 1014.3 970.2
Ю 5 16 км 8/8 1500 m
[Ac]
+17.8 +8.9 56 +17 +18 1013.5 969.3
Ю 5 16 км 8/8 1650 m
[Ac]
+17.8 +8.9 56 +17 +18 1012.8 968.6
Ю 4 16 км 8/5 1800 m
[Ac]
+17.8 +9.4 58 +18 +18 1012.2 968.3
Ю 4 16 км 5/5 1950 m
[Ac Ci]
+16.7 +9.4 62 +16 +16 1011.8 967.6 +16.1 +18.9
Ю 3 16 км 5/2 1800 m
[Ac Ci]
+15.6 +10.0 69 +15 +15 1011.6 967.6
Ю 4 16 км 8/0 3300 m
[Ac Ci]
+15.6 +10.6 72 +15 +15 1011.1 967.3
Ю 3 16 км 8/0 2700 m
[Ac Ci]
+15.0 +10.6 75 +14 +14 1010.5 966.7
Ю 3 16 км 8/8 1320 m
[Ac]
+16.1 +11.1 72 +16 +16 1009.6 965.7
Ю 3 16 км 8/5 1800 m
[Ac]
+15.6 +11.1 75 +15 +15 1008.4 964.7
Ю 4 16 км 8/0 3300 m
[Ac]
+16.1 +11.7 75 +15 +15 1007.4 963.8 +15.0 +16.1
Ю 3 16 км гроза со слабым дождем 10/0 2250 m
[Ac]
+17.0 +12.0 72 +17 +17 963.1
ЮЗ 3 16 км гроза со слабым дождем 10/2 1650 m
[Ac]
+16.7 +12.2 75 +16 +16 1006.5 963.1
Ю 2 0 м гроза, слабый дождь 10/8 690 m
[Ac]
+16.1 +12.8 81 +16 +16 1006.3 962.8
ЮЗ 2 16 км слабый дождь 10/2 750 m
[Ac]
+15.6 +12.8 83 +15 +15 962.8
Ю 4 16 км 8/0 2250 m
[Ac]
+15.6 +13.3 86 +15 +15 1005.7 962.1 3.0
ЮЗ 4 13 км слабый дождь 10/0 2400 m
[Ac]
+15.6 +13.3 86 +15 +15 1005.1 961.5
ЮЗ 5 14 км слабый дождь 8/0 2250 m
[Ac]
+16.1 +13.3 83 +15 +15 1005.2 961.8
ЮЗ 3 16 км 10/8 1950 m
[Ac]
+16.1 +13.3 83 +16 +16 1004.9 961.5 +15.0 +16.7 4.3 4.3
ЮЗ 5 16 км 10/8 660 m
[Ac]
+16.1 +13.9 87 +15 +15 1004.3 960.8
ЮЗ 5 16 км 10/8 1350 m
[Ac]
+17.2 +14.4 84 +17 +17 1003.9 960.5
ЮЗ 5 16 км 10/10 1050 м +18.3 +13.9 76 +18 +18 1003.4 959.9 1.3
ЮЗ 5 16 км 10/10 630 м +20.0 +15.0 73 +22 +22 комфорт 1003.0 959.9
З 5 16 км 8/0 2400 m
[Ac]
+21.1 +13.9 63 +24 +26 комфорт 1002.4 959.2
СЗ 8
{15}
14 км гроза со слабым дождем 8/8 1020 м +17.8 +12.8 73 +17 +17 959.6
СЗ 7
{10}
10 км гроза со слабым дождем 8/8 330 м +16.7 +13.3 80 +15 +16 959.6
СЗ 7 16 км 10/10 330 м +17.0 +14.0 82 +16 +16 959.9
СЗ 9
{11}
16 км 10/10 330 м +16.7 +13.9 84 +15 +15 1003.3 959.9 +15.6 +22.2 1.5
З 8
{11}
3 км дождь 10/10 1080 м +15.6 +12.8 83 +14 +14 960.2
З 5
{10}
5 км слабый дождь 10/8 1410 m
[Ac]
+15.6 +12.8 83 +14 +15 960.2
З 6 13 км слабый дождь 10/5 300 m
[Ac]
+16.1 +13.3 83 +15 +16 1003.6 960.2
З 5 16 км слабый дождь 8/8 330 м +16.1 +13.3 83 +15 +16 1004.0 960.5
З 5 16 км 8/8 720 m
[Ac]
+17.8 +13.3 75 +17 +18 1004.0 960.5 2.3
З 7
{12}
8 км дождь 10/8 510 m
[Ac]
+15.6 +12.8 83 +14 +14 960.8
З 5 13 км слабый дождь 8/5 540 m
[Ac]
+16.1 +13.3 83 +15 +16 960.8
З 7 16 км 8/2 540 m
[Ac]
+16.7 +13.3 80 +15 +16 1004.5 961.2
З 4
{9}
16 км 8/5 420 m
[Ac]
+16.1 +12.8 81 +15 +16 1004.9 961.5
З 5 8 км слабый дождь, дымка 10/10 +15.0 +12.8 87 +14 +14 1005.8 962.1 +15.0 +17.8 4.3
З 4 8 км дождь, дымка 10/8
[Ac]
+15.0 +12.8 87 +14 +14 962.5
З 4 8 км слабый дождь, дымка 10/8
[Ac]
+15.0 +12.8 87 +14 +14 1006.0 962.5
З 4 16 км 10/10 +14.4 +12.2 87 +13 +13 962.5
З 5 16 км 8/8 1050 m
[Ac]
+13.9 +11.7 87 +12 +12 1006.1 962.5
З 4 16 км 8/8 480 м +13.9 +11.7 87 +12 +12 1006.1 962.5 2.0
ЮЗ 3 16 км 2/2 900 m
[Ac]
+13.3 +11.1 87 +12 +12 1006.2 962.8
ЮЗ 3 16 км слабый дождь 8/2 390 m
[Ac]
+13.3 +11.7 90 +12 +12 1006.0 962.5
ЮЗ 3 13 км слабый дождь 10/8 360 m
[Ac]
+13.9 +11.7 87 +13 +13 962.1
ЮЗ 4 14 км слабый дождь 10/8 360 m
[Ac]
+13.9 +11.7 87 +12 +12 1005.6 961.8 +12.8 +15.0 2.0
ЮЗ 5 8 км слабый дождь, дымка 10/10 180 м +13.9 +12.2 89 +12 +12 961.8
Местоположение метеостанции Akron-Canton Regional Airport: широта 40.9181 долгота -81.4425 высота над уровнем моря 374 м.
В архиве по умолчанию представлена погода в Акроне за последние 1-2 суток. Обновление информации о фактической погоде в базе происходит ежечасно! Архивные данные за месяц целиком и за предыдущие месяцы Вы можете получить, выбрав интересующий диапазон дат из раскрывающегося списка и нажав кнопку "Ввод!".
Внимание! Архив погоды МЕТАР в базе сайта по станциям, не включенным в климатический монитор, хранится не более 60 дней. Нет смысла пытаться выбрать более раннюю дату.
*Определитесь, кто Вы:
Внимание! Время в таблицах - местное (без учета летнего времени). Для получения всемирного времени необходимо вычесть поправку, которая равна -5 ч.
Смотрите также архив погоды в соседних городах и на ближайших метеорологических станциях:
Партнеры нашего сайта:      
Пояснения к столбцам:
  • Ветер - указаны скорость ветра в м/с - средняя за 10 мин, порывы в срок и между сроками (в фигурных скобках) и направление, откуда дует ветер: С - северный,
  • СВ - северо-восточный, В - восточный, ЮВ - юго-восточный, Ю - южный, ЮЗ - юго-западный, З - западный, СЗ - северо-западный.
  • Видимость - горизонтальная дальность видимости в метрах или километрах. При видимости от 1 до 10 км при отсутствии осадков обычно наблюдается дымка, при ухудшении видимости до 1 км и менее - туман. В сухую погоду видимость может ухудшаться дымом, пылью или мглою.
  • Явления - указаны атмосферные явления, наблюдавшиеся в срок или в последний час перед сроком; фигурными скобками обозначены явления, наблюдавшиеся между сроками (за 1-3 часа до срока); квадратными скобками обозначены град или гололедные отложения с указанием их диаметра в мм.
  • Облачность - указаны через наклонную черту общая и нижняя облачность в баллах и высота нижней границы облаков в метрах; квадратными скобками обозначены формы облаков: Ci - перистые, Cs - перисто-слоистые, Cc - перисто-кучевые, Ac - высококучевые, As - высокослоистые, Sc - слоисто-кучевые, Ns - слоисто-дождевые, Cu - кучевые, Cb - кучево-дождевые. Подробнее классификацию облаков см. в Атласе облаков (PDF).
  • T - Температура воздуха - температура, измеренная на высоте 2 м над землей.
  • Td - Температура точки росы - температура, при понижении до которой содержащийся в воздухе водяной пар достигнет насыщения.
  • f - Относительная влажность воздуха - влажноcть воздуха, измеренная на высоте 2 м над землей.
  • Te - Эффективная температура - температура, которую ощущает одетый по сезону человек в тени. Характеристика душности погоды. При расчете учитывается влияние влажности воздуха и скорости ветра на теплоощущения человека.
  • Tes - Эффективная температура на солнце - температура, которую ощущает человек, с поправкой на солнечный нагрев. Характеристика знойности погоды. Зависит от высоты солнца над горизонтом, облачности и скорости ветра. Ночью, в пасмурную погоду, а также при ветре 12 м/с и более поправка равна нулю.
  • P - Атмосферное давление - приведенное к уровню моря атмосферное давление.
  • Po - Атмосферное давление - измеренное на уровне метеостанции атмосферное давление.
  • Tmin - Минимальная температура - минимум температуры воздуха на высоте 2 м над землей.
  • Tmax - Максимальная температура - максимум температуры воздуха на высоте 2 м над землей.
  • R - Количество осадков - Количество выпавших осадков за период времени, мм. При наведении курсора мыши на число - период времени, за который выпало указанное количество осадков.
  • R24 - Количество осадков - Количество выпавших осадков за 24 часа, мм.
  • S - Снежный покров - Высота снежного покрова, см. При наведении курсора мыши на число - состояние снежного покрова и степень покрытия местности в баллах.